Change the Weather History Date:

Wednesday, August 20, 2014

  Actual Average Record
Temperature  
Mean Temperature 72 °F -  
Max Temperature 78 °F 77 °F 86 °F (1993)
Min Temperature 68 °F 58 °F 48 °F (1998)
Cooling Degree Days 8    
Growing Degree Days 22 (Base 50)    
Moisture  
Dew Point 64 °F    
Average Humidity 75    
Maximum Humidity 90    
Minimum Humidity 64    
Precipitation  
Precipitation 0.00 in - - ()
Sea Level Pressure  
Sea Level Pressure 29.87 in    
Wind  
Wind Speed 7 mph (SSW)    
Max Wind Speed 12 mph    
Max Gust Speed -    
Visibility 10 miles    
Events Rain    
Averages and records for this station are not official NWS values.
T = Trace of Precipitation, MM = Missing Value Source: NWS Daily Summary

Daily Weather History Graph

Daily Weather History Graph

Search for Another Location

Airport or City:

Trip Planner

Search our weather history database for the weather conditions in past years. The results will help you decide how hot, cold, wet, or windy it might be!

Date:

Astronomy

Aug. 20, 2014 Rise Set
Actual Time 6:26 AM EDT 8:10 PM EDT
Civil Twilight 5:56 AM EDT 8:40 PM EDT
Nautical Twilight 5:19 AM EDT 9:17 PM EDT
Astronomical Twilight 4:40 AM EDT 9:56 PM EDT
Moon 2:02 AM EDT (8/20) 4:56 PM EDT (8/20)
Length of Visible Light 14h 44m
Length of Day
13h 43m
Waning Crescent, 21% of the Moon is Illuminated
Aug 20
Waning Crescent
Aug 25
New
Sep 2
First Quarter
Sep 8
Full
Sep 15
Last Quarter

Hourly Weather History & Observations

Time (EDT) Temp. Dew Point Humidity Pressure Visibility Wind Dir Wind Speed Gust Speed Precip Events Conditions
12:53 AM 68.0 °F 60.1 °F 76% 29.82 in 10.0 mi SSE 9.2 mph - N/A   Mostly Cloudy
1:53 AM 69.1 °F 57.9 °F 68% 29.81 in 10.0 mi SSW 10.4 mph - N/A   Mostly Cloudy
2:53 AM 70.0 °F 62.1 °F 76% 29.80 in 10.0 mi SW 10.4 mph - N/A   Clear
3:53 AM 69.1 °F 62.1 °F 78% 29.82 in 10.0 mi SW 5.8 mph - N/A   Mostly Cloudy
4:53 AM 68.0 °F 62.1 °F 81% 29.82 in 10.0 mi Calm Calm - N/A   Mostly Cloudy
5:53 AM 68.0 °F 63.0 °F 84% 29.84 in 10.0 mi Calm Calm - 0.00 in   Mostly Cloudy
6:53 AM 68.0 °F 63.0 °F 84% 29.86 in 10.0 mi SSW 4.6 mph - N/A   Mostly Cloudy
7:01 AM 68.0 °F 63.0 °F 84% 29.87 in 10.0 mi SSW 4.6 mph - 0.00 in Rain Light Rain
7:34 AM 68.0 °F 63.0 °F 84% 29.87 in 10.0 mi South 4.6 mph - 0.00 in   Mostly Cloudy
7:53 AM 69.1 °F 63.0 °F 81% 29.86 in 10.0 mi South 4.6 mph - 0.00 in   Overcast
8:53 AM 71.1 °F 64.0 °F 78% 29.88 in 10.0 mi South 5.8 mph - N/A   Mostly Cloudy
9:53 AM 71.1 °F 64.0 °F 78% 29.89 in 10.0 mi SW 4.6 mph - N/A   Overcast
10:48 AM 73.4 °F 64.4 °F 73% 29.90 in 10.0 mi SSW 8.1 mph - 0.00 in Rain Light Rain
10:53 AM 73.0 °F 64.9 °F 76% 29.89 in 10.0 mi South 8.1 mph - 0.00 in Rain Light Rain
11:15 AM 73.0 °F 64.0 °F 73% 29.91 in 10.0 mi South 11.5 mph - 0.00 in   Mostly Cloudy
11:53 AM 75.0 °F 64.0 °F 69% 29.89 in 10.0 mi South 9.2 mph - 0.00 in   Overcast
12:53 PM 75.9 °F 64.0 °F 67% 29.88 in 10.0 mi SW 10.4 mph - N/A   Overcast
1:34 PM 73.9 °F 64.0 °F 71% 29.90 in 10.0 mi SSW 11.5 mph - N/A   Overcast
1:53 PM 73.9 °F 64.0 °F 71% 29.90 in 10.0 mi SSW 9.2 mph - N/A   Overcast
2:53 PM 77.0 °F 64.9 °F 66% 29.89 in 10.0 mi SW 10.4 mph - N/A   Mostly Cloudy
3:53 PM 77.0 °F 64.9 °F 66% 29.88 in 10.0 mi SW 10.4 mph - N/A   Mostly Cloudy
4:16 PM 75.9 °F 64.9 °F 69% 29.90 in 10.0 mi WSW 8.1 mph - N/A   Mostly Cloudy
4:53 PM 75.9 °F 64.9 °F 69% 29.90 in 10.0 mi South 6.9 mph - N/A   Mostly Cloudy
5:53 PM 77.0 °F 64.0 °F 64% 29.89 in 10.0 mi South 9.2 mph - N/A   Mostly Cloudy
6:53 PM 75.9 °F 64.9 °F 69% 29.89 in 10.0 mi South 8.1 mph - N/A   Mostly Cloudy
7:53 PM 75.0 °F 64.9 °F 71% 29.88 in 10.0 mi South 4.6 mph - N/A   Mostly Cloudy
8:53 PM 73.0 °F 64.9 °F 76% 29.88 in 10.0 mi ENE 5.8 mph - N/A   Mostly Cloudy
9:53 PM 71.1 °F 64.9 °F 81% 29.90 in 10.0 mi SSE 4.6 mph - N/A   Mostly Cloudy
10:53 PM 70.0 °F 64.9 °F 84% 29.90 in 10.0 mi SSW 6.9 mph - N/A   Scattered Clouds
11:53 PM 68.0 °F 64.9 °F 90% 29.91 in 10.0 mi South 4.6 mph - N/A   Clear